[[{"header":{"parameterUnit":"m.s-1","parameterCategory":2,"la1":30.2991,"la2":30.254,"lo1":-89.0895,"lo2":-89.0444,"dy":0.0017,"dx":0.0017,"nx":28,"ny":28,"refTime":"2025-06-18T21:00:00:Z","depth":"0","parameterNumber":2,"parameterNumberName":"U-component_of_CURRENTS"},"data":[0,0,0,0,0,0,0,0,0,0,0,0,0,0,0,0,0,0,0,0,0,0,0,0,0,0,0,0,0,0,0,0,0,0,0,0,0,0,0,0,0,0,0,0,0,0,0,0,0,0,0,0,0,0,0,0,0,0,0.1194,0.1194,0,0.1201,0.1201,0.1201,0.1188,0.1188,0.1188,0.1187,0.1196,0.1197,0.1197,0,0,0,0,0,0,0,0,0,0,0,0,0,0.1184,0.1184,0.1194,0.1194,0.1194,0.1201,0.1201,0.1201,0.1188,0.1188,0.1188,0.1187,0.1196,0.1197,0.1197,0,0,0,0,0,0,0,0,0,0,0,0,0,0.1189,0.1184,0.1194,0.1189,0.1189,0.1201,0.1201,0.1201,0.1189,0.1188,0.1188,0.1187,0.1196,0.1196,0.1197,0.1213,0,0,0.12,0.12,0,0,0,0,0,0,0,0,0.1188,0.1189,0.119,0.119,0.119,0.1194,0.1201,0.1206,0.1189,0.1188,0.1187,0.1187,0.1197,0.1197,0.1199,0.1213,0.1214,0.12,0.12,0.1201,0.1201,0,0,0,0,0,0,0,0.1188,0.1189,0.1196,0.119,0.119,0.1192,0.1192,0.1202,0.1194,0.1188,0.1187,0.119,0.1196,0.1198,0.1199,0.1214,0.12,0.1201,0.1201,0.1202,0.1256,0.1257,0,0,0,0,0,0,0.1189,0.1188,0.1196,0.1196,0.1189,0.1193,0.1193,0.1193,0.1194,0.1194,0.119,0.1189,0.1197,0.1198,0.1199,0.1233,0.1201,0.1202,0.1202,0.1255,0.1256,0.1257,0,0,0,0,0,0,0.1189,0.1189,0.1195,0.1193,0.1194,0.1194,0.1194,0.1193,0.1196,0.1196,0.1196,0.1194,0.1196,0.1198,0.1213,0.1233,0.1202,0.1203,0.1254,0.1255,0.1256,0.1292,0,0,0,0,0,0,0.1188,0.1189,0.1193,0.1193,0.1195,0.121,0.1194,0.1194,0.1199,0.1197,0.12,0.12,0.1196,0.1212,0.1214,0.1233,0.1203,0.1253,0.1254,0.1256,0.1289,0.1294,0.1298,0,0,0,0,0,0.1188,0.1198,0.1193,0.1194,0.1198,0.1211,0.1212,0.1209,0.12,0.1208,0.1208,0.12,0.1225,0.1214,0.1216,0.1236,0.1252,0.1254,0.1256,0.1287,0.1293,0.1298,0,0,0,0,0,0,0.1202,0.1197,0.1192,0.1202,0.1208,0.1209,0.1218,0.1213,0.1219,0.1218,0.1211,0.1212,0.1234,0.1231,0.1219,0.1257,0.1237,0.124,0.1261,0.1266,0.1271,0.1269,0.1204,0,0,0,0,0,0.1206,0.1208,0.1208,0.1218,0.1221,0.1219,0.1224,0.1222,0.1226,0.1228,0.1229,0.1233,0.1245,0.1251,0.126,0.1281,0.1286,0.1296,0.13,0.1304,0.1305,0.1322,0.1328,0.1264,0.1264,0.1264,0,0,0.1216,0.1213,0.1216,0.1221,0.1224,0.1235,0.1221,0.1233,0.1243,0.1229,0.1246,0.125,0.1254,0.1278,0.1287,0.1277,0.1329,0.1307,0.131,0.1308,0.1325,0.1331,0.1336,0.1265,0.1265,0.1265,0,0,0.1238,0.1234,0.1242,0.1246,0.1252,0.1253,0.1257,0.1261,0.1264,0.1281,0.1275,0.1288,0.1304,0.1311,0.1316,0.1351,0.1352,0.1359,0.138,0.1397,0.1403,0.1407,0.1441,0.1448,0.136,0.136,0.1361,0,0.1253,0.1257,0.1251,0.126,0.1265,0.1261,0.1275,0.1282,0.1291,0.1298,0.1291,0.1318,0.1319,0.1348,0.136,0.1361,0.1377,0.1359,0.1403,0.1407,0.1411,0.1444,0.1452,0.1362,0.1362,0.1362,0.1362,0,0.1277,0.1282,0.129,0.1294,0.1302,0.1316,0.1319,0.1331,0.1332,0.1335,0.1362,0.1366,0.138,0.1387,0.1384,0.1419,0.1425,0.1407,0.1388,0.142,0.1453,0.146,0.1365,0.1365,0.1364,0.1363,0,0,0.1307,0.1307,0.1309,0.131,0.1319,0.1326,0.1348,0.1365,0.1376,0.139,0.141,0.1431,0.1429,0.1435,0.1437,0.1451,0.1498,0.1445,0.1445,0.1477,0.1556,0.1625,0.164,0.149,0.1491,0.1492,0.1574,0,0.1329,0.1343,0.134,0.1357,0.1364,0.1366,0.1384,0.1397,0.1409,0.1428,0.1439,0.1457,0.145,0.1458,0.1475,0.1492,0.1516,0.1479,0.1521,0.1523,0.1579,0.165,0.1724,0.181,0.1581,0.1582,0.1583,0,0.1348,0.1353,0.137,0.1374,0.1379,0.1389,0.1409,0.1425,0.1452,0.1461,0.1485,0.1491,0.1526,0.1503,0.1559,0.1539,0.1552,0.1561,0.1564,0.1619,0.1606,0.1737,0.1831,0.1759,0.1594,0.1593,0.1592,0,0.1354,0.137,0.138,0.1383,0.1394,0.1403,0.1412,0.1434,0.1445,0.1482,0.1495,0.1535,0.1556,0.1582,0.1618,0.1588,0.1682,0.1637,0.1714,0.1719,0.1786,0.1796,0.1813,0.167,0.167,0.167,0.167,0,0.1368,0.1372,0.1381,0.1383,0.1389,0.1404,0.1416,0.1431,0.146,0.1478,0.1509,0.154,0.1575,0.1631,0.1648,0.1734,0.1711,0.1743,0.1753,0.1804,0.1814,0.1755,0.1687,0.1673,0.1672,0.1672,0.1671,0,0.1358,0.137,0.1371,0.1385,0.1386,0.1387,0.1397,0.1409,0.1445,0.1472,0.1485,0.1555,0.1649,0.1703,0.1764,0.1784,0.1811,0.1869,0.1943,0.1961,0.1957,0.1888,0.1813,0.1771,0.1968,0.197,0.1972,0,0.1349,0.1352,0.1355,0.1351,0.1351,0.1355,0.1357,0.1389,0.1404,0.1483,0.1499,0.1607,0.169,0.1846,0.1936,0.2031,0.1901,0.2115,0.2063,0.1995,0.1925,0.1761,0.1717,0.217,0.2174,0.2177,0.2179,0,0.1322,0.1325,0.1325,0.1319,0.1316,0.1312,0.1323,0.1335,0.1387,0.1435,0.1525,0.1608,0.1807,0.1967,0.2116,0.2174,0.2041,0.2175,0.2082,0.2081,0.1925,0.1879,0.2073,0.2204,0.2201,0.22,0.2198,0.2197,0.1291,0.1283,0.1287,0.1278,0.1276,0.1276,0.1272,0.1311,0.1354,0.143,0.1524,0.1661,0.1925,0.2172,0.2232,0.236,0.2197,0.2319,0.2243,0.2083,0.2034,0.2298,0.2447,0.2446,0.2445,0.2444,0.2444,0,0.1243,0.1249,0.1246,0.1238,0.1225,0.1238,0.1252,0.1261,0.1316,0.1432,0.1528,0.1797,0.2035,0.2233,0.2462,0.2425,0.2309,0.2353,0.2134,0.2089,0.2341,0.2345,0.2506,0.2506,0.2506,0.2507,0.2507,0.2507,0.1218,0.1206,0.1213,0.1191,0.1187,0.1166,0.1171,0.1208,0.1286,0.1426,0.1566,0.1696,0.1969,0.2259,0.2383,0.2372,0.2146,0.2108,0.1963,0.2152,0.2141,0.213,0.2118,0.2229,0.2228,0.1709,0.1705,0.1702]},{"header":{"parameterUnit":"m.s-1","parameterCategory":2,"la1":30.2991,"la2":30.254,"lo1":-89.0895,"lo2":-89.0444,"dy":0.0017,"dx":0.0017,"nx":28,"ny":28,"refTime":"2025-06-18T21:00:00:Z","depth":"0","parameterNumber":3,"parameterNumberName":"V-component_of_CURRENTS"},"data":[0,0,0,0,0,0,0,0,0,0,0,0,0,0,0,0,0,0,0,0,0,0,0,0,0,0,0,0,0,0,0,0,0,0,0,0,0,0,0,0,0,0,0,0,0,0,0,0,0,0,0,0,0,0,0,0,0,0,0.008,0.008,0,0.0054,0.0054,0.0053,0.0042,0.0042,0.0042,0.0042,0.0011,0.001,0.0009,0,0,0,0,0,0,0,0,0,0,0,0,0,0.01,0.01,0.008,0.008,0.0079,0.0054,0.0054,0.0053,0.0042,0.0042,0.0042,0.0042,0.0011,0.001,0.0009,0,0,0,0,0,0,0,0,0,0,0,0,0,0.0085,0.01,0.008,0.007,0.0069,0.0054,0.0054,0.0053,0.0042,0.0042,0.0042,0.0042,0.0011,0.001,0.0009,0.0001,0,0,0.0005,0.0004,0,0,0,0,0,0,0,0,0.0086,0.0084,0.0072,0.0071,0.007,0.0051,0.0049,0.0035,0.0042,0.0053,0.0042,0.0042,0.0023,0.0021,0.0017,-0.0001,-0.0002,0.0005,0.0004,0.0003,0.0003,0,0,0,0,0,0,0,0.0087,0.0085,0.007,0.0072,0.007,0.006,0.0058,0.0046,0.0038,0.0052,0.0051,0.0047,0.0023,0.0018,0.0016,-0.0003,0.0005,0.0004,0.0003,0.0002,-0.0037,-0.0037,0,0,0,0,0,0,0.009,0.0086,0.0071,0.0069,0.0077,0.006,0.0058,0.0057,0.0039,0.0036,0.0047,0.0047,0.002,0.0017,0.0015,0.0006,0.0003,0.0002,0.0002,-0.0036,-0.0037,-0.0037,0,0,0,0,0,0,0.0091,0.0089,0.0072,0.0077,0.0074,0.006,0.0059,0.0057,0.0052,0.0035,0.0032,0.0045,0.002,0.0016,0.0001,0.0005,0.0002,0.0001,-0.0036,-0.0036,-0.0037,-0.0013,0,0,0,0,0,0,0.0092,0.009,0.0092,0.0077,0.0073,0.0064,0.0059,0.0056,0.0049,0.0049,0.0032,0.0029,0.002,0.0003,0.0,0.0003,-0.0,-0.0036,-0.0036,-0.0037,-0.0013,-0.0012,-0.0012,0,0,0,0,0,0.0092,0.0098,0.0092,0.009,0.0076,0.0064,0.0062,0.0052,0.0049,0.0048,0.0034,0.003,-0.0002,0.0002,-0.0002,0.0001,-0.0035,-0.0036,-0.0037,-0.0014,-0.0013,-0.0012,0,0,0,0,0,0,0.0112,0.0096,0.009,0.0091,0.0078,0.0062,0.0062,0.0053,0.0041,0.0041,0.0026,0.0022,0.0009,-0.0001,0.0004,-0.0013,-0.0019,-0.0021,-0.0001,0.0,0.0001,0.0012,-0.0002,0,0,0,0,0,0.0115,0.0113,0.0096,0.0097,0.0092,0.0076,0.0071,0.0062,0.0049,0.0044,0.0032,0.0017,0.0004,-0.0002,-0.0017,-0.0026,-0.0038,-0.0027,-0.0027,-0.0026,-0.002,-0.004,-0.0041,-0.0039,-0.0039,-0.0039,0,0,0.0123,0.0115,0.0114,0.0101,0.0091,0.0087,0.0073,0.0066,0.0063,0.0043,0.0036,0.0019,0.0001,-0.001,-0.0016,-0.0017,-0.0034,-0.0026,-0.0025,-0.0021,-0.0041,-0.0041,-0.0041,-0.0039,-0.0039,-0.0039,0,0,0.014,0.013,0.0134,0.0123,0.0108,0.0096,0.0094,0.0077,0.007,0.0058,0.0043,0.0027,0.0007,-0.0005,-0.0013,-0.0017,-0.003,-0.0022,-0.0006,-0.0026,-0.0026,-0.0026,-0.0045,-0.0047,-0.002,-0.002,-0.002,0,0.0151,0.0153,0.0134,0.0132,0.0128,0.0102,0.0106,0.0093,0.0072,0.007,0.0059,0.0029,0.0011,0.0002,-0.0002,-0.0014,-0.0027,-0.0006,-0.0024,-0.0024,-0.0025,-0.0044,-0.0046,-0.0019,-0.0019,-0.0019,-0.0019,0,0.0167,0.0168,0.0169,0.0159,0.0151,0.0149,0.0127,0.0119,0.0105,0.0093,0.0079,0.005,0.0036,0.0023,0.0008,-0.0003,-0.0012,-0.0021,-0.0023,-0.0023,-0.0044,-0.0047,-0.0017,-0.0018,-0.0018,-0.0018,0,0,0.0198,0.0185,0.0185,0.0188,0.0166,0.0163,0.0155,0.0145,0.0148,0.0119,0.0124,0.0086,0.0072,0.006,0.0038,0.0017,-0.0005,-0.0002,-0.0003,-0.0014,-0.0048,-0.0053,-0.0057,-0.0016,-0.0017,-0.0017,-0.0061,0,0.0219,0.0226,0.0213,0.0221,0.0225,0.02,0.0197,0.0183,0.0168,0.0163,0.0131,0.0121,0.0086,0.008,0.0053,0.0014,-0.0011,0.0008,-0.0051,-0.0053,-0.0052,-0.006,-0.0038,-0.0076,-0.0064,-0.0064,-0.0065,0,0.0241,0.0243,0.0256,0.0257,0.0257,0.0255,0.0251,0.0245,0.0226,0.0214,0.0196,0.0173,0.0142,0.0111,0.0041,0.0056,0.0005,-0.0031,-0.0034,-0.0047,-0.0064,-0.0074,-0.0082,-0.0164,-0.007,-0.0069,-0.0069,0,0.0273,0.0277,0.029,0.0287,0.0279,0.0283,0.0278,0.0262,0.0263,0.0249,0.0249,0.021,0.0195,0.0129,0.0054,0.0046,-0.002,-0.0041,-0.0096,-0.0097,-0.0094,-0.0094,-0.0182,-0.0096,-0.0096,-0.0096,-0.0096,0,0.0302,0.0313,0.0305,0.0311,0.0327,0.0313,0.0328,0.0315,0.0308,0.0316,0.0279,0.0281,0.0197,0.0153,0.0074,-0.0013,-0.0007,-0.0093,-0.0109,-0.0086,-0.0085,-0.0169,-0.0232,-0.0097,-0.0097,-0.0097,-0.0097,0,0.0332,0.0327,0.0341,0.034,0.034,0.0349,0.0353,0.0364,0.0352,0.0362,0.036,0.0332,0.028,0.0194,0.0096,0.0017,-0.0115,-0.0103,-0.0068,-0.0079,-0.0213,-0.0275,-0.0361,-0.0405,-0.0175,-0.0176,-0.0176,0,0.0349,0.0357,0.036,0.0369,0.0369,0.0381,0.039,0.0381,0.0394,0.0396,0.0406,0.0372,0.0364,0.0227,0.009,-0.0041,-0.0124,-0.0121,-0.014,-0.0218,-0.0299,-0.0315,-0.0347,-0.013,-0.013,-0.013,-0.013,0,0.0378,0.0374,0.0382,0.0398,0.0409,0.0427,0.0441,0.0457,0.0455,0.0476,0.05,0.0502,0.038,0.029,0.0114,0.0002,-0.0175,-0.0126,-0.0216,-0.0281,-0.0295,-0.0343,-0.0106,-0.013,-0.013,-0.013,-0.013,-0.013,0.0397,0.0404,0.0411,0.0429,0.0446,0.0475,0.05,0.0528,0.0565,0.0614,0.0597,0.0647,0.0498,0.0272,0.0094,-0.018,-0.0195,-0.0253,-0.0324,-0.0334,-0.0371,-0.0132,-0.0167,-0.0167,-0.0168,-0.0168,-0.0168,0,0.0419,0.0425,0.0444,0.0465,0.0494,0.0496,0.0536,0.0575,0.064,0.0714,0.0759,0.0765,0.0558,0.0315,-0.0047,-0.0298,-0.0391,-0.0438,-0.0462,-0.049,-0.0282,-0.0274,-0.0322,-0.0321,-0.0321,-0.0321,-0.0321,-0.0321,0.0432,0.0448,0.0455,0.0503,0.0525,0.0568,0.0598,0.0667,0.0738,0.0872,0.0957,0.1002,0.0857,0.0195,-0.0283,-0.0444,-0.0622,-0.067,-0.076,-0.0628,-0.0615,-0.0604,-0.061,-0.0727,-0.0728,-0.0905,-0.0907,-0.0909]}],[{"header":{"parameterUnit":"m.s-1","parameterCategory":2,"la1":30.2991,"la2":30.254,"lo1":-89.0895,"lo2":-89.0444,"dy":0.0017,"dx":0.0017,"nx":28,"ny":28,"refTime":"2025-06-18T21:00:00:Z","depth":"2","parameterNumber":2,"parameterNumberName":"U-component_of_CURRENTS"},"data":[0,0,0,0,0,0,0,0,0,0,0,0,0,0,0,0,0,0,0,0,0,0,0,0,0,0,0,0,0,0,0,0,0,0,0,0,0,0,0,0,0,0,0,0,0,0,0,0,0,0,0,0,0,0,0,0,0,0,0.0145,0.0144,0,0.0118,0.0117,0.0117,0.0121,0.0122,0.0122,0.0123,0.0146,0.0147,0.0147,0,0,0,0,0,0,0,0,0,0,0,0,0,0.0164,0.0164,0.0145,0.0144,0.0144,0.0118,0.0117,0.0117,0.0121,0.0122,0.0122,0.0123,0.0146,0.0147,0.0147,0,0,0,0,0,0,0,0,0,0,0,0,0,0.0148,0.0163,0.0145,0.0143,0.0143,0.0118,0.0117,0.0117,0.0121,0.0122,0.0122,0.0123,0.0146,0.0147,0.0147,0.0134,0,0,0.0148,0.0148,0,0,0,0,0,0,0,0,0.0149,0.0147,0.0144,0.0143,0.0143,0.0124,0.0133,0.0125,0.0121,0.0129,0.0123,0.0123,0.0143,0.0144,0.0136,0.0135,0.0136,0.0148,0.0148,0.0148,0.0148,0,0,0,0,0,0,0,0.015,0.0148,0.0134,0.0143,0.0143,0.0131,0.013,0.0131,0.0133,0.0128,0.0129,0.0126,0.0143,0.0135,0.0137,0.0136,0.0148,0.0148,0.0148,0.0148,0.017,0.0171,0,0,0,0,0,0,0.0155,0.0149,0.0134,0.0133,0.0148,0.0131,0.0129,0.0129,0.0132,0.0133,0.0125,0.0126,0.0135,0.0136,0.0138,0.0176,0.0148,0.0148,0.0148,0.017,0.0171,0.0171,0,0,0,0,0,0,0.0155,0.0154,0.0136,0.014,0.0137,0.013,0.0129,0.0128,0.0146,0.0129,0.0131,0.0148,0.0135,0.0137,0.0153,0.0175,0.0148,0.0148,0.017,0.017,0.0171,0.0219,0,0,0,0,0,0,0.0156,0.0154,0.017,0.0141,0.0137,0.0136,0.0128,0.0127,0.0142,0.0144,0.0149,0.015,0.0136,0.0153,0.0154,0.0175,0.0149,0.0169,0.017,0.0171,0.0217,0.0221,0.0225,0,0,0,0,0,0.0157,0.0168,0.017,0.0169,0.0154,0.0137,0.0134,0.013,0.0143,0.0151,0.0154,0.0151,0.0159,0.0154,0.0154,0.0176,0.0169,0.017,0.0171,0.0215,0.022,0.0225,0,0,0,0,0,0,0.0191,0.0168,0.0171,0.0178,0.0168,0.0138,0.0151,0.0147,0.0155,0.0172,0.0157,0.0158,0.0178,0.0169,0.0164,0.0183,0.0163,0.0165,0.0197,0.0202,0.0206,0.0221,0.0149,0,0,0,0,0,0.0204,0.0207,0.0183,0.0195,0.0194,0.018,0.018,0.0179,0.0173,0.0179,0.018,0.0182,0.0177,0.0185,0.018,0.0195,0.0196,0.0208,0.0213,0.0216,0.0228,0.0232,0.0238,0.0174,0.0174,0.0174,0,0,0.0221,0.0211,0.0214,0.0203,0.02,0.0198,0.0183,0.0194,0.0198,0.0181,0.0205,0.02,0.0183,0.0194,0.0204,0.0195,0.0238,0.0217,0.0221,0.023,0.0234,0.024,0.0246,0.0175,0.0175,0.0175,0,0,0.025,0.0251,0.0262,0.0254,0.0254,0.0236,0.0246,0.0235,0.0242,0.0255,0.024,0.0249,0.0252,0.0237,0.0229,0.0254,0.0258,0.0259,0.0297,0.0301,0.0307,0.0311,0.0337,0.0344,0.0263,0.0263,0.0263,0,0.0279,0.0284,0.0265,0.0272,0.0274,0.0257,0.0271,0.0263,0.0261,0.027,0.0275,0.0278,0.0268,0.0266,0.0275,0.0265,0.0278,0.028,0.0308,0.0312,0.0316,0.0341,0.0348,0.0266,0.0266,0.0265,0.0265,0,0.03,0.0317,0.0326,0.0324,0.0322,0.0333,0.0314,0.0325,0.0335,0.0326,0.0347,0.0331,0.0337,0.0329,0.0313,0.0335,0.034,0.0311,0.0298,0.0326,0.035,0.0357,0.0269,0.0268,0.0268,0.0267,0,0,0.0344,0.034,0.0352,0.0364,0.0355,0.0354,0.0363,0.0361,0.0379,0.0382,0.0409,0.0394,0.0403,0.0395,0.0377,0.0378,0.0421,0.037,0.0369,0.0402,0.0459,0.0552,0.0567,0.0403,0.0404,0.0405,0.047,0,0.0379,0.0399,0.0388,0.0419,0.0427,0.0415,0.0419,0.0418,0.0422,0.0441,0.0429,0.0454,0.042,0.0447,0.0438,0.0421,0.0438,0.0407,0.0421,0.0422,0.0506,0.0577,0.0423,0.0477,0.0476,0.0477,0.0478,0,0.0413,0.0418,0.0454,0.0465,0.0471,0.0493,0.051,0.0515,0.0517,0.0528,0.0542,0.0536,0.0545,0.052,0.0513,0.0501,0.0499,0.048,0.0481,0.0557,0.0528,0.0444,0.0488,0.0488,0.0487,0.0487,0.0486,0,0.0449,0.0472,0.0505,0.0509,0.0511,0.0548,0.0561,0.0564,0.0574,0.0611,0.0631,0.0625,0.0653,0.0628,0.0604,0.0571,0.0603,0.0545,0.0625,0.0631,0.0498,0.0493,0.0561,0.0561,0.0561,0.056,0.056,0,0.0477,0.0512,0.0539,0.0557,0.0613,0.0607,0.0663,0.0674,0.0688,0.0703,0.0702,0.072,0.0686,0.0689,0.0647,0.0681,0.0644,0.0665,0.0665,0.0515,0.051,0.0507,0.05,0.0563,0.0562,0.0562,0.0561,0,0.052,0.0529,0.0574,0.0609,0.0639,0.0689,0.0736,0.0746,0.0774,0.0801,0.0825,0.082,0.0852,0.0818,0.0798,0.0769,0.0765,0.0784,0.0637,0.0622,0.0775,0.0769,0.0883,0.0887,0.0891,0.0894,0.0896,0,0.0536,0.0569,0.0638,0.0667,0.0703,0.0767,0.0793,0.0812,0.0808,0.0847,0.0849,0.0919,0.0945,0.0981,0.0959,0.0961,0.0896,0.0813,0.0731,0.0826,0.0813,0.0802,0.0792,0.0558,0.0557,0.0557,0.0556,0,0.0568,0.0614,0.0639,0.0705,0.0756,0.0794,0.0836,0.0836,0.0837,0.0868,0.0897,0.0945,0.1032,0.0985,0.1035,0.0984,0.0803,0.0814,0.0925,0.0535,0.0534,0.0517,0.0514,0.0552,0.0553,0.0553,0.0553,0.0553,0.0596,0.0624,0.066,0.0717,0.0778,0.0799,0.0809,0.0814,0.0827,0.0845,0.09,0.0918,0.0883,0.0927,0.0927,0.0912,0.0949,0.0784,0.0777,0.0772,0.0759,0.0767,0.0827,0.0829,0.083,0.0832,0.0833,0,0.0615,0.0629,0.0658,0.0694,0.0734,0.0804,0.0807,0.0775,0.0777,0.0831,0.0888,0.0728,0.0739,0.0736,0.0737,0.078,0.07,0.0706,0.0521,0.0524,0.0527,0.0495,0.0496,0.0496,0.0496,0.0497,0,0,0.0596,0.0609,0.0602,0.0627,0.0697,0.0742,0.0753,0.0719,0.0717,0.0692,0.0678,0.0743,0.0696,0.0574,0.0569,0.0551,0.0549,0.0535,0.0784,0.0569,0.0573,0.0534,0.0485,0,0,0,0,0]},{"header":{"parameterUnit":"m.s-1","parameterCategory":2,"la1":30.2991,"la2":30.254,"lo1":-89.0895,"lo2":-89.0444,"dy":0.0017,"dx":0.0017,"nx":28,"ny":28,"refTime":"2025-06-18T21:00:00:Z","depth":"2","parameterNumber":3,"parameterNumberName":"V-component_of_CURRENTS"},"data":[0,0,0,0,0,0,0,0,0,0,0,0,0,0,0,0,0,0,0,0,0,0,0,0,0,0,0,0,0,0,0,0,0,0,0,0,0,0,0,0,0,0,0,0,0,0,0,0,0,0,0,0,0,0,0,0,0,0,-0.0248,-0.0248,0,-0.0238,-0.0238,-0.0238,-0.028,-0.0281,-0.0283,-0.0284,-0.0313,-0.0312,-0.0312,0,0,0,0,0,0,0,0,0,0,0,0,0,-0.0255,-0.0255,-0.0248,-0.0248,-0.0248,-0.0238,-0.0238,-0.0238,-0.028,-0.0281,-0.0283,-0.0285,-0.0313,-0.0312,-0.0312,0,0,0,0,0,0,0,0,0,0,0,0,0,-0.0248,-0.0255,-0.0248,-0.0269,-0.027,-0.0238,-0.0238,-0.0238,-0.0279,-0.0281,-0.0284,-0.0285,-0.0313,-0.0312,-0.0311,-0.0266,0,0,-0.0309,-0.0309,0,0,0,0,0,0,0,0,-0.0248,-0.0247,-0.0266,-0.0267,-0.0269,-0.0264,-0.0251,-0.0249,-0.0279,-0.0275,-0.0284,-0.0286,-0.0299,-0.0299,-0.0291,-0.0267,-0.0269,-0.0309,-0.0309,-0.0308,-0.0308,0,0,0,0,0,0,0,-0.0249,-0.0248,-0.0243,-0.0265,-0.0268,-0.0262,-0.0264,-0.025,-0.0275,-0.0275,-0.0279,-0.0279,-0.03,-0.0291,-0.0292,-0.0269,-0.0309,-0.0308,-0.0308,-0.0308,-0.0245,-0.0244,0,0,0,0,0,0,-0.0253,-0.0248,-0.0243,-0.0242,-0.0265,-0.0261,-0.0262,-0.0262,-0.0275,-0.0279,-0.0277,-0.0281,-0.0292,-0.0293,-0.0293,-0.0299,-0.0308,-0.0308,-0.0307,-0.0246,-0.0245,-0.0244,0,0,0,0,0,0,-0.0253,-0.0252,-0.0243,-0.0246,-0.0245,-0.0259,-0.0258,-0.0261,-0.0278,-0.0276,-0.0281,-0.0295,-0.0293,-0.0294,-0.0291,-0.0299,-0.0307,-0.0307,-0.0248,-0.0246,-0.0244,-0.0273,0,0,0,0,0,0,-0.0253,-0.0252,-0.0259,-0.0247,-0.0245,-0.0236,-0.0256,-0.0259,-0.0274,-0.028,-0.0292,-0.0295,-0.0295,-0.0292,-0.029,-0.0298,-0.0306,-0.0249,-0.0247,-0.0245,-0.0274,-0.0272,-0.0271,0,0,0,0,0,-0.0253,-0.0252,-0.026,-0.0259,-0.0253,-0.0235,-0.0234,-0.0249,-0.0274,-0.0274,-0.0281,-0.0297,-0.0277,-0.029,-0.0289,-0.0296,-0.025,-0.0248,-0.0245,-0.0274,-0.0273,-0.0271,0,0,0,0,0,0,-0.0264,-0.0256,-0.0264,-0.0263,-0.0257,-0.0244,-0.0249,-0.0258,-0.0262,-0.0279,-0.0282,-0.0283,-0.0284,-0.0273,-0.0289,-0.0266,-0.0265,-0.0262,-0.0288,-0.0286,-0.0285,-0.0304,-0.0305,0,0,0,0,0,-0.0267,-0.0266,-0.0255,-0.0258,-0.0256,-0.0256,-0.0256,-0.0266,-0.0264,-0.027,-0.0278,-0.0276,-0.0262,-0.0265,-0.0253,-0.0239,-0.0245,-0.0239,-0.0238,-0.0237,-0.0248,-0.0243,-0.0244,-0.0235,-0.0235,-0.0235,0,0,-0.0272,-0.0269,-0.0269,-0.026,-0.026,-0.025,-0.0262,-0.0267,-0.0264,-0.027,-0.0279,-0.0276,-0.0256,-0.0245,-0.0244,-0.0246,-0.0243,-0.0234,-0.0234,-0.0245,-0.0241,-0.0242,-0.0244,-0.0233,-0.0233,-0.0233,0,0,-0.0274,-0.028,-0.0277,-0.0269,-0.0271,-0.0263,-0.0269,-0.0267,-0.0275,-0.0271,-0.0273,-0.0273,-0.026,-0.0246,-0.0235,-0.0214,-0.0237,-0.0213,-0.0229,-0.0225,-0.0226,-0.0228,-0.0249,-0.0252,-0.0213,-0.0214,-0.0214,0,-0.0286,-0.0277,-0.0274,-0.0267,-0.0265,-0.0271,-0.0265,-0.0259,-0.0259,-0.0262,-0.0281,-0.0262,-0.0256,-0.023,-0.0233,-0.0216,-0.023,-0.0243,-0.0227,-0.0229,-0.023,-0.0251,-0.0254,-0.0215,-0.0214,-0.0214,-0.0214,0,-0.0275,-0.0276,-0.0274,-0.0267,-0.026,-0.0258,-0.0248,-0.0254,-0.0271,-0.0268,-0.0267,-0.0256,-0.0251,-0.0242,-0.024,-0.0236,-0.025,-0.023,-0.0241,-0.0233,-0.0255,-0.0258,-0.0216,-0.0216,-0.0215,-0.0215,0,0,-0.0286,-0.027,-0.0273,-0.0268,-0.0263,-0.0253,-0.025,-0.024,-0.0243,-0.0253,-0.0254,-0.0242,-0.0261,-0.0249,-0.0242,-0.0242,-0.0272,-0.0255,-0.0254,-0.0296,-0.0293,-0.0278,-0.028,-0.026,-0.0261,-0.0261,-0.0311,0,-0.0284,-0.0269,-0.0262,-0.0252,-0.0242,-0.0245,-0.0235,-0.0232,-0.0238,-0.024,-0.0238,-0.0236,-0.0252,-0.0261,-0.0267,-0.0264,-0.0279,-0.0262,-0.0277,-0.0278,-0.0282,-0.0282,-0.0257,-0.0297,-0.0314,-0.0315,-0.0315,0,-0.0273,-0.0265,-0.0253,-0.0241,-0.0239,-0.0232,-0.0228,-0.0223,-0.0222,-0.023,-0.0242,-0.0248,-0.0257,-0.0267,-0.0288,-0.0284,-0.0305,-0.0304,-0.0305,-0.0285,-0.0268,-0.0302,-0.0302,-0.032,-0.032,-0.0319,-0.0319,0,-0.0269,-0.0258,-0.0249,-0.0244,-0.023,-0.023,-0.0228,-0.0226,-0.0218,-0.023,-0.0232,-0.025,-0.0258,-0.0282,-0.0311,-0.0309,-0.0334,-0.0317,-0.0323,-0.0323,-0.03,-0.0297,-0.0338,-0.0338,-0.0337,-0.0337,-0.0337,0,-0.0257,-0.0251,-0.0247,-0.0238,-0.0223,-0.0229,-0.022,-0.0218,-0.0219,-0.0202,-0.0234,-0.0217,-0.0265,-0.0286,-0.0316,-0.0338,-0.0343,-0.0337,-0.0331,-0.0308,-0.0305,-0.0316,-0.0313,-0.0339,-0.0339,-0.0338,-0.0338,0,-0.0243,-0.0245,-0.0229,-0.0222,-0.0215,-0.0209,-0.0198,-0.0193,-0.0203,-0.0183,-0.0189,-0.0204,-0.023,-0.0277,-0.0311,-0.0335,-0.0354,-0.0361,-0.0348,-0.0339,-0.0351,-0.0348,-0.0374,-0.0374,-0.0374,-0.0374,-0.0374,0,-0.023,-0.0223,-0.0209,-0.0193,-0.0187,-0.0179,-0.0168,-0.0178,-0.0172,-0.0156,-0.0142,-0.0166,-0.0131,-0.0191,-0.0248,-0.0302,-0.0345,-0.0351,-0.0325,-0.0361,-0.0353,-0.0351,-0.0348,-0.0318,-0.0317,-0.0317,-0.0316,0,-0.0203,-0.0206,-0.0197,-0.0165,-0.0152,-0.013,-0.0121,-0.0108,-0.0118,-0.0079,-0.0032,0.0008,-0.0036,-0.0072,-0.0176,-0.021,-0.0341,-0.0342,-0.0379,-0.0302,-0.0308,-0.03,-0.03,-0.0312,-0.0312,-0.0313,-0.0313,-0.0313,-0.0189,-0.0179,-0.0171,-0.0142,-0.0113,-0.0082,-0.0063,-0.0041,0.0001,0.0088,0.0098,0.0165,0.0063,-0.0015,-0.0117,-0.0261,-0.0243,-0.0315,-0.0316,-0.0318,-0.0292,-0.0296,-0.0296,-0.0296,-0.0296,-0.0296,-0.0297,0,-0.0156,-0.0153,-0.0138,-0.0113,-0.0071,-0.0056,-0.0025,0.0015,0.0093,0.0204,0.0306,0.0209,0.0181,0.0021,-0.015,-0.023,-0.0231,-0.0305,-0.0302,-0.0304,-0.0307,-0.0281,-0.0281,-0.0282,-0.0282,-0.0283,0,0,-0.0145,-0.013,-0.0135,-0.0082,-0.0044,0.0009,0.0041,0.0123,0.0204,0.0327,0.0362,0.0475,0.0246,0.0098,-0.004,-0.0164,-0.0197,-0.0176,-0.0171,-0.0147,-0.0148,-0.0292,-0.0252,0,0,0,0,0]}],[{"header":{"parameterUnit":"m.s-1","parameterCategory":2,"la1":30.2991,"la2":30.254,"lo1":-89.0895,"lo2":-89.0444,"dy":0.0017,"dx":0.0017,"nx":28,"ny":28,"refTime":"2025-06-18T21:00:00:Z","depth":"4","parameterNumber":2,"parameterNumberName":"U-component_of_CURRENTS"},"data":[0,0,0,0,0,0,0,0,0,0,0,0,0,0,0,0,0,0,0,0,0,0,0,0,0,0,0,0,0,0,0,0,0,0,0,0,0,0,0,0,0,0,0,0,0,0,0,0,0,0,0,0,0,0,0,0,0,0,0.013,0.0131,0,0.0143,0.0143,0.0143,0.0145,0.0145,0.0145,0.0145,0.0077,0.0075,0.0074,0,0,0,0,0,0,0,0,0,0,0,0,0,0.0081,0.0082,0.013,0.0131,0.0131,0.0143,0.0143,0.0143,0.0145,0.0145,0.0145,0.0145,0.0078,0.0076,0.0073,0,0,0,0,0,0,0,0,0,0,0,0,0,0.0096,0.0082,0.013,0.0135,0.0136,0.0143,0.0143,0.0143,0.0145,0.0145,0.0145,0.0145,0.0079,0.0076,0.0073,0.0052,0,0,0.0064,0.0063,0,0,0,0,0,0,0,0,0.0096,0.0098,0.0134,0.0135,0.0136,0.0145,0.0101,0.011,0.0145,0.0139,0.0145,0.0145,0.0094,0.009,0.0089,0.0049,0.0046,0.0064,0.0062,0.0061,0.006,0,0,0,0,0,0,0,0.0095,0.0097,0.0133,0.0135,0.0136,0.0128,0.0131,0.0103,0.0112,0.0139,0.014,0.0146,0.0094,0.0092,0.0088,0.0045,0.0064,0.0062,0.006,0.0059,-0.0076,-0.0078,0,0,0,0,0,0,0.01,0.0096,0.0132,0.0133,0.0119,0.0129,0.0132,0.014,0.0114,0.0111,0.0146,0.0146,0.0097,0.0091,0.0085,0.0018,0.0061,0.0058,0.0057,-0.0074,-0.0076,-0.0078,0,0,0,0,0,0,0.0099,0.0103,0.0132,0.0117,0.0121,0.0131,0.0139,0.014,0.0135,0.012,0.0115,0.014,0.0097,0.0089,0.0045,0.0017,0.0057,0.0054,-0.0072,-0.0075,-0.0077,-0.0092,0,0,0,0,0,0,0.0097,0.0102,0.0111,0.0118,0.0122,0.0137,0.0139,0.014,0.014,0.014,0.0113,0.0108,0.0096,0.005,0.0042,0.0013,0.0052,-0.007,-0.0073,-0.0077,-0.0089,-0.0095,-0.0099,0,0,0,0,0,0.0095,0.0104,0.0111,0.0116,0.0133,0.0137,0.0138,0.0143,0.014,0.0139,0.0109,0.0109,0.0022,0.0046,0.0038,0.0007,-0.0068,-0.0072,-0.0076,-0.0086,-0.0093,-0.0099,0,0,0,0,0,0,0.0086,0.0105,0.0113,0.0128,0.0134,0.0138,0.0142,0.0139,0.0117,0.011,0.009,0.0082,0.003,0.0017,0.0044,-0.0045,-0.0025,-0.0031,-0.0031,-0.0037,-0.0042,-0.0017,0.005,0,0,0,0,0,0.0089,0.0102,0.0115,0.0126,0.0131,0.0134,0.0136,0.0134,0.0119,0.0111,0.0084,0.0047,0.0007,-0.0014,-0.0048,-0.0092,-0.0068,-0.0121,-0.0126,-0.013,-0.0118,-0.0122,-0.0125,-0.0092,-0.0092,-0.0092,0,0,0.0089,0.0102,0.011,0.0125,0.0131,0.0135,0.0135,0.0134,0.0124,0.0103,0.0068,0.0028,-0.001,-0.0061,-0.0086,-0.0075,-0.0125,-0.0136,-0.0139,-0.0123,-0.0126,-0.0129,-0.0131,-0.0095,-0.0094,-0.0094,0,0,0.0092,0.0107,0.0117,0.0122,0.0131,0.0131,0.013,0.0121,0.0107,0.0066,0.0041,-0.0009,-0.0069,-0.0099,-0.0122,-0.0178,-0.0152,-0.0203,-0.0208,-0.0213,-0.0214,-0.0215,-0.0165,-0.0161,-0.0205,-0.0206,-0.0206,0,0.0091,0.0108,0.0118,0.0127,0.0132,0.0129,0.0131,0.0118,0.0088,0.0067,0.0051,-0.0048,-0.0083,-0.0138,-0.0165,-0.0187,-0.0167,-0.0176,-0.0216,-0.0217,-0.0217,-0.0166,-0.0162,-0.0207,-0.0207,-0.0206,-0.0206,0,0.01,0.0113,0.0118,0.0131,0.0133,0.0134,0.0123,0.0103,0.0074,0.0052,-0.0016,-0.0072,-0.0125,-0.016,-0.0182,-0.0223,-0.0197,-0.0218,-0.0189,-0.0221,-0.0165,-0.016,-0.0208,-0.0208,-0.0208,-0.0207,0,0,0.01,0.012,0.0124,0.0131,0.0134,0.0136,0.0116,0.0097,0.0081,0.0022,-0.0008,-0.0102,-0.0134,-0.0163,-0.0205,-0.0221,-0.0214,-0.0226,-0.0226,-0.0155,-0.0182,-0.0142,-0.0133,-0.0245,-0.0245,-0.0245,-0.013,0,0.0105,0.0121,0.0127,0.0136,0.0142,0.0135,0.012,0.0096,0.0063,0.003,-0.0036,-0.0086,-0.0133,-0.0169,-0.0195,-0.0217,-0.0208,-0.024,-0.0179,-0.0176,-0.0121,-0.0129,-0.0246,-0.0126,-0.0125,-0.0124,-0.0124,0,0.0111,0.0122,0.0132,0.014,0.0142,0.014,0.0122,0.0104,0.0062,0.0031,-0.0025,-0.0063,-0.0112,-0.0146,-0.0168,-0.0188,-0.018,-0.0186,-0.0182,-0.0134,-0.0129,-0.0097,-0.0115,-0.0116,-0.0116,-0.0117,-0.0117,0,0.0106,0.0125,0.0133,0.0137,0.0142,0.0135,0.0125,0.0094,0.0081,0.0032,0.0026,-0.004,-0.0059,-0.0088,-0.0104,-0.0138,-0.0093,-0.0137,-0.0077,-0.0072,-0.0132,-0.0132,-0.0124,-0.0124,-0.0124,-0.0124,-0.0125,0,0.0105,0.0114,0.0132,0.0135,0.0137,0.0132,0.0119,0.01,0.0079,0.0071,0.0022,0.0013,-0.0048,-0.0036,-0.0066,-0.004,-0.0056,-0.0059,-0.0047,-0.0139,-0.0142,-0.0126,-0.0128,-0.012,-0.0121,-0.0122,-0.0123,0,0.0094,0.0109,0.0119,0.013,0.0134,0.0127,0.0127,0.0117,0.0102,0.0098,0.0087,0.0071,0.0074,0.0059,0.0046,0.0035,0.0037,0.0059,0.0021,0.0027,0.0059,0.0054,0.0129,0.0132,0.0133,0.0135,0.0136,0,0.009,0.0094,0.0116,0.0124,0.0127,0.0124,0.0123,0.0114,0.011,0.0129,0.0131,0.0155,0.0139,0.018,0.014,0.0145,0.0126,0.0164,0.0048,0.0077,0.0081,0.0073,0.0067,0.0139,0.014,0.014,0.0141,0,0.0077,0.0085,0.0093,0.0111,0.0118,0.0127,0.0127,0.0135,0.0133,0.0146,0.0174,0.0185,0.0218,0.0195,0.0233,0.0211,0.0142,0.0182,0.0176,0.0067,0.0089,0.009,0.0081,0.0147,0.0146,0.0146,0.0145,0,0.0065,0.0067,0.0081,0.0096,0.0112,0.0121,0.0122,0.0138,0.0145,0.0176,0.0191,0.0208,0.0222,0.0235,0.0246,0.0255,0.022,0.0201,0.0193,0.0186,0.0143,0.0176,0.0286,0,0,0,0,0,0.0053,0.0057,0.0068,0.0083,0.01,0.0111,0.0127,0.0129,0.0151,0.0177,0.0185,0.0207,0.0234,0.0237,0.025,0.0249,0.0211,0.0265,0.0182,0.0183,0.0175,0.0115,0,0,0,0,0,0,0.0045,0.0052,0.0061,0.0074,0.0085,0.0098,0.0109,0.0122,0.0134,0.0165,0.0172,0.0212,0.0224,0.0224,0.0249,0.0253,0.0203,0.0283,0.0284,0.0187,0.018,0.0174,0.0109,0,0,0,0,0]},{"header":{"parameterUnit":"m.s-1","parameterCategory":2,"la1":30.2991,"la2":30.254,"lo1":-89.0895,"lo2":-89.0444,"dy":0.0017,"dx":0.0017,"nx":28,"ny":28,"refTime":"2025-06-18T21:00:00:Z","depth":"4","parameterNumber":3,"parameterNumberName":"V-component_of_CURRENTS"},"data":[0,0,0,0,0,0,0,0,0,0,0,0,0,0,0,0,0,0,0,0,0,0,0,0,0,0,0,0,0,0,0,0,0,0,0,0,0,0,0,0,0,0,0,0,0,0,0,0,0,0,0,0,0,0,0,0,0,0,-0.0246,-0.0247,0,-0.0331,-0.0332,-0.0333,-0.0343,-0.0342,-0.0342,-0.0341,-0.036,-0.0361,-0.0362,0,0,0,0,0,0,0,0,0,0,0,0,0,-0.0098,-0.01,-0.0246,-0.0247,-0.0249,-0.0331,-0.0332,-0.0333,-0.0343,-0.0342,-0.0341,-0.0341,-0.0359,-0.0361,-0.0362,0,0,0,0,0,0,0,0,0,0,0,0,0,-0.0169,-0.0101,-0.0246,-0.0264,-0.0267,-0.0331,-0.0332,-0.0333,-0.0343,-0.0342,-0.0341,-0.034,-0.0359,-0.0361,-0.0362,-0.0395,0,0,-0.0368,-0.0368,0,0,0,0,0,0,0,0,-0.0165,-0.0174,-0.0261,-0.0263,-0.0266,-0.0326,-0.0287,-0.0351,-0.0344,-0.0313,-0.0341,-0.034,-0.0344,-0.0347,-0.0365,-0.0396,-0.0396,-0.0368,-0.0369,-0.037,-0.037,0,0,0,0,0,0,0,-0.016,-0.0171,-0.0279,-0.0262,-0.0265,-0.027,-0.0279,-0.0299,-0.0331,-0.0316,-0.0317,-0.0329,-0.0345,-0.0363,-0.0365,-0.0397,-0.0368,-0.0369,-0.037,-0.0371,-0.0423,-0.0423,0,0,0,0,0,0,-0.0154,-0.0167,-0.0276,-0.0281,-0.0213,-0.0274,-0.0284,-0.0307,-0.0333,-0.0336,-0.033,-0.0329,-0.036,-0.0363,-0.0365,-0.0369,-0.037,-0.0371,-0.0372,-0.0423,-0.0423,-0.0423,0,0,0,0,0,0,-0.0151,-0.0163,-0.0272,-0.0226,-0.024,-0.0278,-0.0304,-0.031,-0.0337,-0.0344,-0.0346,-0.0353,-0.036,-0.0363,-0.0395,-0.0371,-0.0372,-0.0374,-0.0422,-0.0423,-0.0423,-0.04,0,0,0,0,0,0,-0.0146,-0.0162,-0.0186,-0.0226,-0.0243,-0.0312,-0.0305,-0.0312,-0.0346,-0.0346,-0.0365,-0.0365,-0.0359,-0.0393,-0.0397,-0.0374,-0.0375,-0.0422,-0.0422,-0.0423,-0.04,-0.04,-0.0399,0,0,0,0,0,-0.0141,-0.0177,-0.0187,-0.02,-0.0272,-0.0313,-0.0322,-0.0344,-0.0348,-0.0364,-0.0381,-0.0365,-0.0398,-0.0396,-0.04,-0.0376,-0.0421,-0.0422,-0.0423,-0.0401,-0.04,-0.0399,0,0,0,0,0,0,-0.013,-0.0183,-0.0194,-0.0246,-0.0277,-0.0315,-0.0344,-0.0356,-0.0385,-0.0391,-0.0389,-0.0391,-0.0404,-0.0408,-0.0405,-0.0394,-0.0399,-0.0401,-0.0381,-0.038,-0.0379,-0.0377,-0.0377,0,0,0,0,0,-0.0139,-0.018,-0.0219,-0.0263,-0.0281,-0.0315,-0.034,-0.0355,-0.0383,-0.0396,-0.0404,-0.0411,-0.0411,-0.0412,-0.0422,-0.0432,-0.0432,-0.0415,-0.0414,-0.0413,-0.0416,-0.0405,-0.0403,-0.0426,-0.0426,-0.0426,0,0,-0.0148,-0.0184,-0.0208,-0.0263,-0.0294,-0.032,-0.0328,-0.0372,-0.039,-0.0394,-0.0424,-0.0421,-0.0419,-0.0419,-0.0422,-0.0418,-0.0407,-0.0414,-0.0413,-0.0416,-0.0406,-0.0403,-0.0401,-0.0426,-0.0426,-0.0426,0,0,-0.0174,-0.0219,-0.025,-0.0276,-0.0324,-0.0344,-0.0358,-0.0398,-0.0413,-0.0443,-0.0437,-0.0437,-0.0446,-0.0433,-0.0426,-0.0438,-0.0411,-0.042,-0.0405,-0.0394,-0.0392,-0.039,-0.0383,-0.0381,-0.041,-0.041,-0.041,0,-0.018,-0.0225,-0.0265,-0.0293,-0.0316,-0.0353,-0.0377,-0.0403,-0.0445,-0.0455,-0.0449,-0.0454,-0.0452,-0.044,-0.0423,-0.0434,-0.0419,-0.0403,-0.0391,-0.0389,-0.0387,-0.0382,-0.0379,-0.0409,-0.0409,-0.0409,-0.0409,0,-0.0215,-0.025,-0.0274,-0.0317,-0.0348,-0.0382,-0.0414,-0.044,-0.0456,-0.0469,-0.0475,-0.0471,-0.0459,-0.0447,-0.0431,-0.0405,-0.0395,-0.0397,-0.0388,-0.0383,-0.0378,-0.0376,-0.0407,-0.0407,-0.0408,-0.0408,0,0,-0.0227,-0.0283,-0.0292,-0.0306,-0.0362,-0.0388,-0.0424,-0.0458,-0.0472,-0.0489,-0.0492,-0.0475,-0.0457,-0.0449,-0.0423,-0.0404,-0.037,-0.0376,-0.0376,-0.0362,-0.0334,-0.033,-0.0327,-0.0351,-0.0351,-0.035,-0.0334,0,-0.0237,-0.0276,-0.031,-0.0347,-0.0366,-0.0407,-0.0431,-0.0466,-0.0486,-0.0498,-0.0493,-0.048,-0.0461,-0.0427,-0.041,-0.0382,-0.0362,-0.0374,-0.0349,-0.0349,-0.0338,-0.0324,-0.0349,-0.0332,-0.0332,-0.0332,-0.0331,0,-0.0257,-0.0277,-0.031,-0.0346,-0.036,-0.039,-0.0432,-0.0455,-0.0485,-0.0489,-0.0482,-0.0471,-0.0441,-0.0422,-0.0383,-0.0381,-0.0349,-0.0336,-0.0335,-0.0338,-0.034,-0.0341,-0.0328,-0.0328,-0.0328,-0.0328,-0.0329,0,-0.0233,-0.0279,-0.0303,-0.0318,-0.0366,-0.039,-0.0415,-0.0455,-0.0463,-0.0472,-0.0459,-0.0451,-0.0416,-0.0395,-0.0359,-0.0351,-0.0327,-0.0323,-0.0302,-0.0302,-0.0321,-0.0323,-0.0298,-0.0298,-0.0298,-0.0298,-0.0298,0,-0.023,-0.0249,-0.0295,-0.0306,-0.0331,-0.0371,-0.0396,-0.0418,-0.0434,-0.0424,-0.0434,-0.0406,-0.0397,-0.0383,-0.0362,-0.0329,-0.0331,-0.0298,-0.0295,-0.0312,-0.0314,-0.0319,-0.0322,-0.0297,-0.0297,-0.0297,-0.0297,0,-0.021,-0.0238,-0.0261,-0.0306,-0.0323,-0.0341,-0.0376,-0.0381,-0.0394,-0.0378,-0.0364,-0.0359,-0.0331,-0.0349,-0.0319,-0.0318,-0.0302,-0.029,-0.0316,-0.0315,-0.0282,-0.0284,-0.0259,-0.0259,-0.0259,-0.0258,-0.0258,0,-0.0204,-0.0214,-0.0255,-0.0266,-0.0293,-0.032,-0.0333,-0.0358,-0.035,-0.0337,-0.0313,-0.0295,-0.0288,-0.0268,-0.0285,-0.0289,-0.0281,-0.0281,-0.0271,-0.0278,-0.0277,-0.0279,-0.0281,-0.0258,-0.0258,-0.0258,-0.0257,0,-0.0185,-0.0205,-0.022,-0.0237,-0.0259,-0.0273,-0.0286,-0.0273,-0.0279,-0.0286,-0.0244,-0.0241,-0.0227,-0.0237,-0.0254,-0.0251,-0.029,-0.0277,-0.0278,-0.0268,-0.0275,-0.0275,-0.0278,-0.0256,-0.0257,-0.0257,-0.0257,0,-0.0174,-0.0177,-0.0194,-0.0212,-0.0226,-0.0226,-0.0238,-0.0225,-0.0221,-0.0206,-0.0187,-0.0193,-0.02,-0.0215,-0.0225,-0.0238,-0.0226,-0.0221,-0.0224,-0.0225,-0.0227,-0.0232,-0.0191,0,0,0,0,0,-0.0164,-0.0164,-0.0168,-0.0184,-0.0191,-0.0204,-0.0206,-0.0212,-0.0209,-0.0169,-0.0179,-0.0164,-0.0173,-0.0185,-0.0191,-0.0219,-0.0237,-0.0227,-0.0235,-0.0251,-0.0252,-0.026,0,0,0,0,0,0,-0.0159,-0.0159,-0.016,-0.0156,-0.0162,-0.0168,-0.0171,-0.017,-0.0149,-0.0147,-0.0153,-0.016,-0.0177,-0.0168,-0.0189,-0.0195,-0.0199,-0.0239,-0.0239,-0.025,-0.0251,-0.0252,-0.0261,0,0,0,0,0]}]]